Weather History for KGAI - April, 2013

Change the Weather History Date:

Tuesday, April 23, 2013

  Actual Average (KCGS) Record (KCGS)
Temperature  
Mean Temperature 50 °F -  
Max Temperature 59 °F 70 °F 96 °F (1985)
Min Temperature 42 °F 45 °F 32 °F (1989)
Degree Days  
Heating Degree Days 14    
Moisture  
Dew Point 38 °F    
Average Humidity 66    
Maximum Humidity 81    
Minimum Humidity 48    
Precipitation  
Precipitation 0.00 in - - ()
Sea Level Pressure  
Sea Level Pressure 30.28 in    
Wind  
Wind Speed 3 mph (ENE)    
Max Wind Speed 7 mph    
Max Gust Speed -    
Visibility 10 miles    
Events      
Averages and records for this station are not official NWS values.
T = Trace of Precipitation, MM = Missing Value Source: NWS Daily Summary

Daily Weather History Graph

Daily Weather History Graph

Search for Another Location

Airport or City:

Trip Planner

Search our weather history database for the weather conditions in past years. The results will help you decide how hot, cold, wet, or windy it might be!

Date:

Astronomy

Apr. 23, 2013 Rise Set
Actual Time 6:20 AM EDT 7:54 PM EDT
Civil Twilight 5:52 AM EDT 8:22 PM EDT
Nautical Twilight 5:18 AM EDT 8:56 PM EDT
Astronomical Twilight 4:42 AM EDT 9:32 PM EDT
Moon 5:47 PM EDT (4/23) 4:46 AM EDT (4/23)
Length of Visible Light 14h 30m
Length of Day
13h 33m
Waxing Gibbous, 94% of the Moon is Illuminated
Apr 23
Waxing Gibbous
Apr 25
Full
May 2
Last Quarter
May 9
New
May 18
First Quarter

Hourly Weather History & Observations

Time (EDT) Temp. Windchill Dew Point Humidity Pressure Visibility Wind Dir Wind Speed Gust Speed Precip Events Conditions
12:15 AM 44.6 °F 42.2 °F 32.0 °F 61% 30.43 in 10.0 mi NE 4.6 mph - N/A   Overcast
12:35 AM 44.6 °F 42.2 °F 32.0 °F 61% 30.43 in 10.0 mi ENE 4.6 mph - N/A   Overcast
12:55 AM 44.6 °F - 32.0 °F 61% 30.42 in 10.0 mi Calm Calm - N/A   Overcast
1:15 AM 44.6 °F 43.1 °F 32.0 °F 61% 30.42 in 10.0 mi NNE 3.5 mph - N/A   Overcast
1:35 AM 44.6 °F 43.1 °F 32.0 °F 61% 30.41 in 10.0 mi NE 3.5 mph - N/A   Overcast
1:55 AM 42.8 °F - 33.8 °F 70% 30.40 in 10.0 mi Calm Calm - N/A   Overcast
2:15 AM 44.6 °F 43.1 °F 32.0 °F 61% 30.40 in 10.0 mi NE 3.5 mph - N/A   Overcast
2:35 AM 44.6 °F 43.1 °F 33.8 °F 66% 30.39 in 10.0 mi ENE 3.5 mph - N/A   Overcast
2:55 AM 42.8 °F - 33.8 °F 70% 30.37 in 10.0 mi Calm Calm - N/A   Overcast
3:15 AM 42.8 °F - 33.8 °F 70% 30.37 in 10.0 mi Calm Calm - N/A   Overcast
3:35 AM 42.8 °F 41.1 °F 33.8 °F 70% 30.37 in 10.0 mi NE 3.5 mph - N/A   Overcast
3:55 AM 42.8 °F - 33.8 °F 70% 30.37 in 10.0 mi Calm Calm - N/A   Overcast
4:15 AM 42.8 °F 40.1 °F 33.8 °F 70% 30.36 in 10.0 mi NE 4.6 mph - N/A   Overcast
4:35 AM 42.8 °F 41.1 °F 33.8 °F 70% 30.36 in 10.0 mi NE 3.5 mph - N/A   Overcast
4:55 AM 42.8 °F 40.1 °F 35.6 °F 76% 30.35 in 10.0 mi ENE 4.6 mph - N/A   Overcast
5:15 AM 42.8 °F 41.1 °F 35.6 °F 76% 30.35 in 10.0 mi NE 3.5 mph - N/A   Overcast
5:35 AM 42.8 °F - 35.6 °F 76% 30.35 in 10.0 mi Calm Calm - N/A   Overcast
6:15 AM 42.8 °F 39.3 °F 35.6 °F 76% 30.34 in 10.0 mi NE 5.8 mph - N/A   Overcast
6:35 AM 42.8 °F - 37.4 °F 81% 30.34 in 10.0 mi Calm Calm - N/A   Overcast
6:55 AM 42.8 °F 39.3 °F 37.4 °F 81% 30.34 in 10.0 mi NE 5.8 mph - N/A   Overcast
7:15 AM 44.6 °F 43.1 °F 37.4 °F 76% 30.33 in 10.0 mi ENE 3.5 mph - N/A   Overcast
7:35 AM 44.6 °F 43.1 °F 37.4 °F 76% 30.35 in 10.0 mi NE 3.5 mph - N/A   Overcast
7:55 AM 44.6 °F 41.4 °F 37.4 °F 76% 30.35 in 9.0 mi NE 5.8 mph - N/A   Overcast
8:15 AM 44.6 °F 42.2 °F 37.4 °F 76% 30.34 in 10.0 mi ENE 4.6 mph - N/A   Overcast
8:35 AM 44.6 °F 42.2 °F 37.4 °F 76% 30.34 in 9.0 mi ENE 4.6 mph - N/A   Overcast
8:55 AM 44.6 °F 43.1 °F 39.2 °F 81% 30.34 in 10.0 mi NE 3.5 mph - N/A   Overcast
9:15 AM 44.6 °F 43.1 °F 37.4 °F 76% 30.33 in 10.0 mi East 3.5 mph - N/A   Overcast
9:35 AM 46.4 °F 45.2 °F 37.4 °F 71% 30.33 in 10.0 mi NE 3.5 mph - N/A   Overcast
9:55 AM 46.4 °F - 39.2 °F 76% 30.32 in 10.0 mi Calm Calm - N/A   Overcast
10:15 AM 46.4 °F 45.2 °F 39.2 °F 76% 30.32 in 10.0 mi ENE 3.5 mph - N/A   Overcast
10:35 AM 46.4 °F 45.2 °F 39.2 °F 76% 30.32 in 10.0 mi ENE 3.5 mph - N/A   Overcast
10:55 AM 48.2 °F - 39.2 °F 71% 30.31 in 9.0 mi East 3.5 mph - N/A   Overcast
11:15 AM 48.2 °F - 39.2 °F 71% 30.30 in 10.0 mi ESE 4.6 mph - N/A   Overcast
11:35 AM 50.0 °F - 39.2 °F 66% 30.29 in 10.0 mi SE 6.9 mph - N/A   Overcast
11:55 AM 51.8 °F - 37.4 °F 58% 30.29 in 10.0 mi Calm Calm - N/A   Overcast
12:15 PM 51.8 °F - 39.2 °F 62% 30.29 in 10.0 mi ESE 4.6 mph - N/A   Overcast
12:35 PM 51.8 °F - 39.2 °F 62% 30.29 in 10.0 mi ENE 3.5 mph - N/A   Overcast
12:55 PM 51.8 °F - 39.2 °F 62% 30.28 in 10.0 mi NE 3.5 mph - N/A   Overcast
1:15 PM 51.8 °F - 39.2 °F 62% 30.28 in 10.0 mi Calm Calm - N/A   Overcast
1:35 PM 53.6 °F - 39.2 °F 58% 30.27 in 10.0 mi SW 3.5 mph - N/A   Overcast
1:55 PM 53.6 °F - 39.2 °F 58% 30.27 in 10.0 mi Calm Calm - N/A   Overcast
2:15 PM 53.6 °F - 39.2 °F 58% 30.26 in 10.0 mi WNW 3.5 mph - N/A   Overcast
2:35 PM 53.6 °F - 41.0 °F 62% 30.27 in 10.0 mi NNW 5.8 mph - N/A   Overcast
2:55 PM 55.4 °F - 39.2 °F 54% 30.26 in 10.0 mi Calm Calm - N/A   Overcast
3:15 PM 55.4 °F - 41.0 °F 58% 30.24 in 10.0 mi NE 3.5 mph - N/A   Mostly Cloudy
3:35 PM 57.2 °F - 39.2 °F 51% 30.22 in 10.0 mi NNE 3.5 mph - N/A   Scattered Clouds
3:55 PM 57.2 °F - 39.2 °F 51% 30.20 in 10.0 mi East 3.5 mph - N/A   Partly Cloudy
4:15 PM 57.2 °F - 41.0 °F 55% 30.20 in 10.0 mi SE 5.8 mph - N/A   Clear
4:35 PM 57.2 °F - 41.0 °F 55% 30.19 in 10.0 mi ESE 4.6 mph - N/A   Clear
4:55 PM 57.2 °F - 39.2 °F 51% 30.19 in 10.0 mi SSE 4.6 mph - N/A   Clear
5:15 PM 57.2 °F - 39.2 °F 51% 30.18 in 10.0 mi Calm Calm - N/A   Partly Cloudy
5:35 PM 57.2 °F - 39.2 °F 51% 30.17 in 10.0 mi Calm Calm - N/A   Partly Cloudy
5:55 PM 57.2 °F - 39.2 °F 51% 30.16 in 10.0 mi ESE 3.5 mph - N/A   Clear
6:15 PM 59.0 °F - 39.2 °F 48% 30.16 in 10.0 mi ESE 4.6 mph - N/A   Clear
6:35 PM 57.2 °F - 39.2 °F 51% 30.16 in 10.0 mi Calm Calm - N/A   Clear
6:55 PM 57.2 °F - 39.2 °F 51% 30.17 in 10.0 mi NW 3.5 mph - N/A   Clear
7:15 PM 57.2 °F - 39.2 °F 51% 30.17 in 10.0 mi Calm Calm - N/A   Clear
7:35 PM 55.4 °F - 37.4 °F 51% 30.16 in 10.0 mi Calm Calm - N/A   Clear
7:55 PM 55.4 °F - 39.2 °F 54% 30.16 in 10.0 mi Calm Calm - N/A   Clear
8:15 PM 51.8 °F - 39.2 °F 62% 30.16 in 10.0 mi Calm Calm - N/A   Clear
8:35 PM 51.8 °F - 39.2 °F 62% 30.16 in 10.0 mi Calm Calm - N/A   Clear
8:55 PM 48.2 °F - 41.0 °F 76% 30.18 in 10.0 mi Calm Calm - N/A   Clear
9:15 PM 50.0 °F - 39.2 °F 66% 30.18 in 10.0 mi Calm Calm - N/A   Clear
9:35 PM 48.2 °F - 39.2 °F 71% 30.18 in 10.0 mi SE 3.5 mph - N/A   Clear
9:55 PM 50.0 °F - 39.2 °F 66% 30.18 in 10.0 mi SE 4.6 mph - N/A   Clear
10:15 PM 48.2 °F - 39.2 °F 71% 30.17 in 10.0 mi SE 4.6 mph - N/A   Clear
10:35 PM 48.2 °F - 39.2 °F 71% 30.16 in 10.0 mi SE 4.6 mph - N/A   Clear
10:55 PM 46.4 °F 43.5 °F 39.2 °F 76% 30.16 in 10.0 mi SE 5.8 mph - N/A   Clear
11:15 PM 46.4 °F 43.5 °F 39.2 °F 76% 30.15 in 10.0 mi SE 5.8 mph - N/A   Clear
11:35 PM 46.4 °F 43.5 °F 39.2 °F 76% 30.15 in 10.0 mi SSE 5.8 mph - N/A   Clear
11:55 PM 46.4 °F 44.3 °F 39.2 °F 76% 30.15 in 10.0 mi SE 4.6 mph - N/A   Clear